www.pogodaiklimat.ru
ПОГОДА в Лаграндже
Время
и дата
10:56 25.05
11:03 25.05
11:56 25.05
12:56 25.05
13:56 25.05
14:56 25.05
15:56 25.05
16:56 25.05
17:56 25.05
18:56 25.05
19:56 25.05
20:56 25.05
21:56 25.05
22:56 25.05
23:56 25.05
00:56 26.05
01:56 26.05
02:56 26.05
03:56 26.05
04:56 26.05
05:56 26.05
06:56 26.05
07:56 26.05
08:56 26.05
09:56 26.05
10:56 26.05
11:56 26.05
12:56 26.05
13:56 26.05
14:56 26.05
15:56 26.05
16:56 26.05
17:56 26.05
18:56 26.05
18:56 27.05
19:56 27.05
20:56 27.05
21:56 27.05
22:56 27.05
23:56 27.05
00:56 28.05
01:56 28.05
02:56 28.05
03:56 28.05
04:56 28.05
05:56 28.05
06:56 28.05
07:56 28.05
Ветер
(напр.,м/с)
Видим. Явления Облачность Т
(С)
Тd
(С)
f
(%)
Тe
(С)
Тes
(С)
Комфортность P
(гПа)
Po
(гПа)
Тmin
(С)
Tmax
(С)
R
(мм)
R24
(мм)
S
(см)
СЗ 4 16 км 10/10 870 м +11.7 +5.0 63 +10 +10 1011.8 916.2
СЗ 3 16 км 8/8 990 м +12.0 +5.0 62 +11 +14 915.9
СЗ 7 16 км 5/5 1110 м +13.3 +6.1 62 +11 +13 1011.4 915.9
СЗ 4 16 км 5/2 1290 m
[Ac]
+13.3 +3.3 51 +12 +19 1011.7 916.2
С 5 16 км 5/2 1800 m
[Ac]
+15.0 +2.2 42 +14 +19 1011.5 916.2
СЗ 6
{9}
16 км 5/5 1800 м +14.4 +1.7 42 +13 +16 1011.7 916.2
СЗ 8
{12}
16 км 2/2 1800 м +15.0 +2.2 42 +13 +15 1012.3 916.8 +8.9 +16.1
СЗ 9
{11}
16 км ясно +14.4 +1.1 40 +12 +13 1012.8 917.2
СЗ 9
{11}
16 км ясно +13.9 +1.1 42 +11 +12 1013.4 917.8
СЗ 5 16 км ясно +10.6 +1.1 52 +8 +9 1014.0 918.1
СЗ 5
{7}
16 км ясно +9.4 +2.2 61 +6 +7 1015.0 919.0
С 2 16 км ясно +8.3 +1.7 63 +7 +7 1016.2 919.9
нст 2 16 км 2/2 1110 м +6.1 +1.7 73 +4 +4 1016.9 920.2 +6.1 +15.0
З 2 16 км 2/2 1170 м +6.7 +2.2 73 +5 +5 1017.0 920.8
З 2 16 км ясно +6.1 +1.7 73 +4 +4 1017.5 921.1
ЮЗ 3 16 км ясно +5.0 +1.7 79 +2 +2 1018.0 921.4
ЮЗ 2 16 км 2/2 1320 м +2.8 +2.2 96 -1 -1 1018.3 921.8
Ю 2 16 км ясно +2.2 +1.1 92 -1 -1 1018.3 921.8
штиль 0 16 км ясно +3.3 +1.7 89 +2 +2 1018.1 921.8 +1.7 +7.2 0.3
Ю 2 16 км ясно +3.3 +1.7 89 0 0 1019.2 922.4
16 км ясно +6.1 +2.8 79 +5 +6 1019.2 922.7
Ю 2 16 км ясно +7.8 +2.8 71 +6 +8 1019.3 922.7
штиль 0 16 км ясно +10.0 +2.8 61 +10 +16 1019.6 923.0
З 2 16 км ясно +12.2 +2.8 53 +12 +20 1019.5 923.0
СЗ 5 16 км ясно +15.0 +3.9 47 +14 +20 1019.3 923.0 +1.7 +15.0
нст 3 16 км ясно +15.6 +4.4 47 +15 +28 опасность
простуды
1018.9 922.7
В 4 13 км ясно +17.2 +5.0 44 +17 +29 опасность
простуды
1018.8 922.7
С 4 16 км 2/2 1800 м +18.3 +5.0 41 +18 +28 1018.5 922.4
нст 2 16 км ясно +17.8 +4.4 41 +18 +36 опасность
простуды
1018.7 922.4
нст 2 16 км ясно +19.4 +5.0 39 +20 +35 опасность
простуды
1018.3 922.1
В 3 16 км 2/2 1950 м +19.4 +4.4 37 +20 +27 1018.2 922.1 +14.4 +20.6
С 4 16 км ясно +20.6 +4.4 34 +21 +26 комфорт 1018.0 922.1
СВ 3 16 км ясно +19.4 +5.6 40 +20 +23 1017.8 922.1
С 2 16 км ясно +17.2 +7.2 52 +18 +19 1018.1 922.1
СЗ 7 16 км 8/0 3000 m
[Ac]
+22.8 +10.6 46 +25 +25 комфорт 919.6
З 4 16 км ясно +18.9 +9.4 54 +19 +20 1015.2 920.2
СЗ 4 16 км ясно +17.8 +8.9 56 +18 +18 1015.6 920.5
ЮЗ 3 16 км ясно +15.6 +11.1 75 +15 +15 1016.6 921.4 +15.0 +26.7
ЮВ 4 16 км 2/0 3600 m
[Ac]
+15.0 +10.0 72 +14 +14 1015.6 920.5
ЮЗ 2 16 км ясно +15.6 +10.0 69 +16 +16 1015.0 920.5
ЮВ 3 16 км ясно +11.1 +9.4 89 +9 +9 1014.7 919.9
штиль 0 16 км 5/0 3600 m
[Ac]
+11.1 +9.4 89 +10 +10 1014.4 919.9
ЮВ 3 16 км 2/0 3600 m
[Ac]
+10.6 +9.4 92 +8 +8 1014.1 919.6
СЗ 2 16 км ясно +10.6 +8.9 89 +9 +9 1013.9 919.3 +9.4 +18.3
В 2 16 км ясно +8.9 +8.3 96 +7 +7 1014.1 919.3
В 3 16 км 2/0 3600 m
[Ac]
+12.2 +10.6 90 +11 +11 1014.0 919.6
Ю 2 16 км ясно +12.8 +9.4 80 +12 +14 1014.7 919.9
З 7 16 км ясно +17.8 +7.8 52 +17 +18 1014.3 919.6
Местоположение метеостанции La Grande/Union County Airport: широта 45.2833 долгота -118.0000 высота над уровнем моря 828 м.
В архиве по умолчанию представлена погода в Лаграндже за последние 1-2 суток. Обновление информации о фактической погоде в базе происходит ежечасно! Архивные данные за месяц целиком и за предыдущие месяцы Вы можете получить, выбрав интересующий диапазон дат из раскрывающегося списка и нажав кнопку "Ввод!".
Внимание! Архив погоды МЕТАР в базе сайта по станциям, не включенным в климатический монитор, хранится не более 60 дней. Нет смысла пытаться выбрать более раннюю дату.
*Определитесь, кто Вы:
Внимание! Время в таблицах - местное (без учета летнего времени). Для получения всемирного времени необходимо вычесть поправку, которая равна -8 ч.
Смотрите также архив погоды в соседних городах и на ближайших метеорологических станциях:
Партнеры нашего сайта:      
Пояснения к столбцам:
  • Ветер - указаны скорость ветра в м/с - средняя за 10 мин, порывы в срок и между сроками (в фигурных скобках) и направление, откуда дует ветер: С - северный,
  • СВ - северо-восточный, В - восточный, ЮВ - юго-восточный, Ю - южный, ЮЗ - юго-западный, З - западный, СЗ - северо-западный.
  • Видимость - горизонтальная дальность видимости в метрах или километрах. При видимости от 1 до 10 км при отсутствии осадков обычно наблюдается дымка, при ухудшении видимости до 1 км и менее - туман. В сухую погоду видимость может ухудшаться дымом, пылью или мглою.
  • Явления - указаны атмосферные явления, наблюдавшиеся в срок или в последний час перед сроком; фигурными скобками обозначены явления, наблюдавшиеся между сроками (за 1-3 часа до срока); квадратными скобками обозначены град или гололедные отложения с указанием их диаметра в мм.
  • Облачность - указаны через наклонную черту общая и нижняя облачность в баллах и высота нижней границы облаков в метрах; квадратными скобками обозначены формы облаков: Ci - перистые, Cs - перисто-слоистые, Cc - перисто-кучевые, Ac - высококучевые, As - высокослоистые, Sc - слоисто-кучевые, Ns - слоисто-дождевые, Cu - кучевые, Cb - кучево-дождевые. Подробнее классификацию облаков см. в Атласе облаков (PDF).
  • T - Температура воздуха - температура, измеренная на высоте 2 м над землей.
  • Td - Температура точки росы - температура, при понижении до которой содержащийся в воздухе водяной пар достигнет насыщения.
  • f - Относительная влажность воздуха - влажноcть воздуха, измеренная на высоте 2 м над землей.
  • Te - Эффективная температура - температура, которую ощущает одетый по сезону человек в тени. Характеристика душности погоды. При расчете учитывается влияние влажности воздуха и скорости ветра на теплоощущения человека.
  • Tes - Эффективная температура на солнце - температура, которую ощущает человек, с поправкой на солнечный нагрев. Характеристика знойности погоды. Зависит от высоты солнца над горизонтом, облачности и скорости ветра. Ночью, в пасмурную погоду, а также при ветре 12 м/с и более поправка равна нулю.
  • P - Атмосферное давление - приведенное к уровню моря атмосферное давление.
  • Po - Атмосферное давление - измеренное на уровне метеостанции атмосферное давление.
  • Tmin - Минимальная температура - минимум температуры воздуха на высоте 2 м над землей.
  • Tmax - Максимальная температура - максимум температуры воздуха на высоте 2 м над землей.
  • R - Количество осадков - Количество выпавших осадков за период времени, мм. При наведении курсора мыши на число - период времени, за который выпало указанное количество осадков.
  • R24 - Количество осадков - Количество выпавших осадков за 24 часа, мм.
  • S - Снежный покров - Высота снежного покрова, см. При наведении курсора мыши на число - состояние снежного покрова и степень покрытия местности в баллах.